ROA2080 SVMI-MDPC

Flight info

Callsign ROA2080
Flight time 1h 16m
Altitude 37000
Route ARMUR/N0486F380 DCT NEGON/N0486F370
Aircraft B77W/H-SDE1E2E3FGHIJ2J3J4J5M1RWXY/LB1D1

Departure

Time 2026-05-05 21:36
Airport Maiquetía Simón Bolívar International Airport (SVMI)

Arrival

Time 2026-05-05 22:53
Airport Punta Cana International Airport (MDPC)
Time Latitude Longitude Altitude Speed Heading
2026-05-05 20:51 10.59825 -67.00780 238 ft 0 kts 178°
2026-05-05 21:25 10.59835 -67.00780 238 ft 4 kts 178°
2026-05-05 21:25 10.59861 -67.00781 238 ft 4 kts 178°
2026-05-05 21:26 10.59887 -67.00782 238 ft 2 kts 178°
2026-05-05 21:26 10.59906 -67.00781 238 ft 4 kts 233°
2026-05-05 21:26 10.59911 -67.00759 238 ft 4 kts 268°
2026-05-05 21:26 10.59912 -67.00734 237 ft 2 kts 268°
2026-05-05 21:27 10.59912 -67.00733 237 ft 1 kts 268°
2026-05-05 21:30 10.59912 -67.00745 237 ft 5 kts 268°
2026-05-05 21:30 10.59911 -67.00773 238 ft 6 kts 268°
2026-05-05 21:30 10.59910 -67.00822 239 ft 9 kts 268°
2026-05-05 21:31 10.59906 -67.00936 241 ft 13 kts 268°
2026-05-05 21:31 10.59904 -67.01021 242 ft 10 kts 268°
2026-05-05 21:31 10.59901 -67.01094 243 ft 10 kts 268°
2026-05-05 21:31 10.59900 -67.01132 244 ft 0 kts 268°
2026-05-05 21:32 10.59900 -67.01135 244 ft 2 kts 268°
2026-05-05 21:32 10.59900 -67.01158 245 ft 4 kts 268°
2026-05-05 21:32 10.59899 -67.01183 245 ft 4 kts 268°
2026-05-05 21:32 10.59898 -67.01208 246 ft 4 kts 271°
2026-05-05 21:33 10.59918 -67.01223 246 ft 4 kts 336°
2026-05-05 21:33 10.59944 -67.01232 246 ft 4 kts 342°
2026-05-05 21:33 10.59948 -67.01233 246 ft 0 kts 342°
2026-05-05 21:33 10.59955 -67.01235 246 ft 4 kts 349°
2026-05-05 21:34 10.60028 -67.01241 246 ft 14 kts 357°
2026-05-05 21:34 10.60108 -67.01244 246 ft 10 kts 357°
2026-05-05 21:34 10.60165 -67.01247 243 ft 8 kts 357°
2026-05-05 21:34 10.60196 -67.01249 243 ft 3 kts 360°
2026-05-05 21:35 10.60209 -67.01227 242 ft 5 kts 75°
2026-05-05 21:35 10.60214 -67.01187 240 ft 0 kts 85°
2026-05-05 21:35 10.60220 -67.01085 238 ft 54 kts 87°
2026-05-05 21:36 10.60241 -67.00378 230 ft 143 kts 88°
2026-05-05 21:36 10.60276 -66.99120 326 ft 201 kts 89°
2026-05-05 21:36 10.60319 -66.97685 1156 ft 203 kts 88°
2026-05-05 21:36 10.60524 -66.96257 2154 ft 204 kts 78°
2026-05-05 21:37 10.60871 -66.94847 2784 ft 215 kts 77°
2026-05-05 21:37 10.61257 -66.93273 3031 ft 242 kts 69°
2026-05-05 21:37 10.62228 -66.91823 3619 ft 255 kts 45°
2026-05-05 21:37 10.63671 -66.90713 4349 ft 265 kts 32°
2026-05-05 21:38 10.65421 -66.90139 5092 ft 276 kts
2026-05-05 21:38 10.67366 -66.90160 5736 ft 285 kts
2026-05-05 21:38 10.69363 -66.90153 6548 ft 289 kts
2026-05-05 21:38 10.71392 -66.90097 6987 ft 292 kts
2026-05-05 21:39 10.73424 -66.90028 7622 ft 293 kts
2026-05-05 21:39 10.75483 -66.89950 8379 ft 299 kts
2026-05-05 21:39 10.77576 -66.89870 9159 ft 303 kts
2026-05-05 21:39 10.79693 -66.89790 9978 ft 305 kts
2026-05-05 21:40 10.81840 -66.89707 10646 ft 316 kts
2026-05-05 21:40 10.84128 -66.89616 10866 ft 343 kts
2026-05-05 21:40 10.86609 -66.89620 11080 ft 370 kts
2026-05-05 21:40 10.89258 -66.89729 11454 ft 389 kts 359°
2026-05-05 21:41 10.92002 -66.89874 12170 ft 399 kts 359°
2026-05-05 21:41 10.94793 -66.90024 13051 ft 403 kts 359°
2026-05-05 21:41 10.97562 -66.90166 14024 ft 405 kts 360°
2026-05-05 21:41 11.00384 -66.90303 14919 ft 408 kts 359°
2026-05-05 21:42 11.03272 -66.90435 15789 ft 412 kts 359°
2026-05-05 21:42 11.06112 -66.90561 16582 ft 416 kts 359°
2026-05-05 21:42 11.09014 -66.90687 17421 ft 420 kts 359°
2026-05-05 21:42 11.11941 -66.90814 18220 ft 423 kts 359°
2026-05-05 21:43 11.14895 -66.90942 18998 ft 426 kts 359°
2026-05-05 21:43 11.17871 -66.91070 19713 ft 431 kts 358°
2026-05-05 21:43 11.20883 -66.91200 20383 ft 435 kts 358°
2026-05-05 21:43 11.23929 -66.91332 21052 ft 439 kts 358°
2026-05-05 21:44 11.26998 -66.91463 21695 ft 443 kts 358°
2026-05-05 21:44 11.30093 -66.91597 22300 ft 447 kts 358°
2026-05-05 21:44 11.33215 -66.91734 22868 ft 451 kts 357°
2026-05-05 21:44 11.36362 -66.91872 23454 ft 455 kts 357°
2026-05-05 21:45 11.39534 -66.92010 24010 ft 458 kts 357°
2026-05-05 21:45 11.42735 -66.92149 24535 ft 461 kts 357°
2026-05-05 21:45 11.45916 -66.92210 25038 ft 465 kts
2026-05-05 21:45 11.49159 -66.92064 25521 ft 469 kts
2026-05-05 21:46 11.52423 -66.91809 25983 ft 472 kts
2026-05-05 21:46 11.55716 -66.91517 26438 ft 476 kts
2026-05-05 21:46 11.59026 -66.91226 26885 ft 478 kts
2026-05-05 21:46 11.62351 -66.90951 27300 ft 482 kts
2026-05-05 21:47 11.65707 -66.90693 27710 ft 484 kts
2026-05-05 21:47 11.69082 -66.90449 28105 ft 487 kts
2026-05-05 21:47 11.72471 -66.90211 28470 ft 490 kts
2026-05-05 21:47 11.75880 -66.89978 28819 ft 492 kts
2026-05-05 21:48 11.79309 -66.89745 29149 ft 495 kts
2026-05-05 21:48 11.82755 -66.89511 29457 ft 497 kts
2026-05-05 21:48 11.86214 -66.89273 29800 ft 499 kts
2026-05-05 21:48 11.89675 -66.89036 30227 ft 497 kts
2026-05-05 21:49 11.93123 -66.88798 30705 ft 496 kts
2026-05-05 21:49 11.96558 -66.88560 31183 ft 494 kts
2026-05-05 21:49 11.99983 -66.88324 31637 ft 493 kts
2026-05-05 21:49 12.03356 -66.88090 32041 ft 493 kts
2026-05-05 21:50 12.06781 -66.87854 32403 ft 493 kts
2026-05-05 21:50 12.10200 -66.87617 32865 ft 491 kts
2026-05-05 21:50 12.13608 -66.87382 33329 ft 490 kts
2026-05-05 21:50 12.17001 -66.87147 33806 ft 487 kts
2026-05-05 21:51 12.20382 -66.86914 34264 ft 486 kts
2026-05-05 21:51 12.23750 -66.86682 34661 ft 485 kts
2026-05-05 21:51 12.27120 -66.86449 35004 ft 486 kts
2026-05-05 21:51 12.30491 -66.86217 35352 ft 485 kts
2026-05-05 21:52 12.37219 -66.85751 36062 ft 484 kts
2026-05-05 21:52 12.40582 -66.85517 36340 ft 485 kts
2026-05-05 21:52 12.43947 -66.85284 36646 ft 485 kts
2026-05-05 21:53 12.47313 -66.85052 36882 ft 487 kts
2026-05-05 21:53 12.54071 -66.84582 36941 ft 483 kts
2026-05-05 21:54 12.60693 -66.84121 36934 ft 472 kts
2026-05-05 21:55 12.73234 -66.83252 36948 ft 473 kts
2026-05-05 21:55 12.80884 -66.82723 36954 ft 474 kts
2026-05-05 21:56 12.87468 -66.82263 36948 ft 475 kts
2026-05-05 21:56 12.92996 -66.81879 36950 ft 475 kts
2026-05-05 21:57 12.99596 -66.81419 36954 ft 476 kts
2026-05-05 21:57 13.06159 -66.80964 36954 ft 476 kts
2026-05-05 21:58 13.12769 -66.80506 36953 ft 476 kts
2026-05-05 21:58 13.19386 -66.80044 36955 ft 477 kts
2026-05-05 21:59 13.26008 -66.79582 36953 ft 477 kts
2026-05-05 21:59 13.32632 -66.79118 36954 ft 477 kts
2026-05-05 22:00 13.39246 -66.78658 36962 ft 476 kts
2026-05-05 22:00 13.45861 -66.78195 36963 ft 476 kts
2026-05-05 22:01 13.52462 -66.77733 36963 ft 476 kts
2026-05-05 22:01 13.59069 -66.77271 36964 ft 475 kts
2026-05-05 22:02 13.65667 -66.76809 36963 ft 475 kts
2026-05-05 22:02 13.72266 -66.76348 36964 ft 475 kts
2026-05-05 22:03 13.78866 -66.75886 36974 ft 475 kts
2026-05-05 22:03 13.85425 -66.75426 36973 ft 476 kts
2026-05-05 22:04 13.92036 -66.74963 36972 ft 476 kts
2026-05-05 22:04 13.98643 -66.74499 36973 ft 476 kts
2026-05-05 22:05 14.05249 -66.74036 36973 ft 476 kts
2026-05-05 22:05 14.11865 -66.73572 36983 ft 476 kts
2026-05-05 22:06 14.18489 -66.73106 36984 ft 477 kts
2026-05-05 22:06 14.25112 -66.72641 36982 ft 477 kts
2026-05-05 22:07 14.31699 -66.72178 36978 ft 477 kts
2026-05-05 22:07 14.38322 -66.71711 36986 ft 477 kts
2026-05-05 22:08 14.44954 -66.71244 36991 ft 477 kts
2026-05-05 22:08 14.51570 -66.70777 36992 ft 477 kts
2026-05-05 22:09 14.58195 -66.70310 36990 ft 477 kts
2026-05-05 22:09 14.64781 -66.69845 36997 ft 477 kts
2026-05-05 22:10 14.71400 -66.69378 37000 ft 477 kts
2026-05-05 22:10 14.78023 -66.68910 36998 ft 477 kts
2026-05-05 22:11 14.84657 -66.68442 37002 ft 477 kts
2026-05-05 22:11 14.91285 -66.67972 37005 ft 477 kts
2026-05-05 22:12 14.97925 -66.67502 37011 ft 478 kts
2026-05-05 22:12 15.04564 -66.67034 37010 ft 479 kts
2026-05-05 22:13 15.11211 -66.66562 37010 ft 479 kts
2026-05-05 22:13 15.17860 -66.66089 37015 ft 479 kts
2026-05-05 22:14 15.24462 -66.65622 37019 ft 479 kts
2026-05-05 22:14 15.31116 -66.65149 37020 ft 479 kts
2026-05-05 22:15 15.37767 -66.64677 37027 ft 479 kts
2026-05-05 22:15 15.44416 -66.64204 37028 ft 479 kts
2026-05-05 22:16 15.51037 -66.63998 37024 ft 473 kts 348°
2026-05-05 22:16 15.54148 -66.64993 37052 ft 467 kts 332°
2026-05-05 22:16 15.56877 -66.66787 37039 ft 464 kts 317°
2026-05-05 22:17 15.61114 -66.71792 37044 ft 463 kts 307°
2026-05-05 22:17 15.65157 -66.77021 37047 ft 466 kts 308°
2026-05-05 22:18 15.69255 -66.82252 37040 ft 469 kts 308°
2026-05-05 22:18 15.73404 -66.87484 37033 ft 470 kts 308°
2026-05-05 22:19 15.77566 -66.92713 37049 ft 470 kts 308°
2026-05-05 22:19 15.81721 -66.97939 37043 ft 469 kts 308°
2026-05-05 22:20 15.85869 -67.03163 36792 ft 468 kts 308°
2026-05-05 22:20 15.87933 -67.05764 36532 ft 464 kts 308°
2026-05-05 22:20 15.89976 -67.08339 36281 ft 459 kts 308°
2026-05-05 22:20 15.91974 -67.10859 36027 ft 457 kts 308°
2026-05-05 22:21 15.93999 -67.13412 35782 ft 458 kts 308°
2026-05-05 22:21 15.96032 -67.15981 35528 ft 459 kts 308°
2026-05-05 22:21 15.98067 -67.18550 35293 ft 460 kts 308°
2026-05-05 22:21 16.00101 -67.21119 35041 ft 461 kts 308°
2026-05-05 22:22 16.02137 -67.23691 34790 ft 461 kts 308°
2026-05-05 22:22 16.04173 -67.26263 34550 ft 461 kts 308°
2026-05-05 22:22 16.06209 -67.28839 34298 ft 460 kts 308°
2026-05-05 22:22 16.08240 -67.31407 34113 ft 457 kts 308°
2026-05-05 22:23 16.10217 -67.33908 34064 ft 451 kts 308°
2026-05-05 22:23 16.14181 -67.38925 34049 ft 449 kts 308°
2026-05-05 22:24 16.18171 -67.43980 34029 ft 454 kts 308°
2026-05-05 22:24 16.22180 -67.49063 34048 ft 455 kts 308°
2026-05-05 22:25 16.26193 -67.54157 34028 ft 455 kts 308°
2026-05-05 22:25 16.30204 -67.59246 34031 ft 454 kts 308°
2026-05-05 22:26 16.34201 -67.64323 34045 ft 452 kts 308°
2026-05-05 22:26 16.38181 -67.69382 34032 ft 450 kts 308°
2026-05-05 22:27 16.42144 -67.74422 34048 ft 449 kts 308°
2026-05-05 22:27 16.46100 -67.79461 34029 ft 449 kts 308°
2026-05-05 22:28 16.50033 -67.84473 34027 ft 449 kts 308°
2026-05-05 22:28 16.53989 -67.89517 34028 ft 450 kts 308°
2026-05-05 22:29 16.57954 -67.94576 34028 ft 451 kts 308°
2026-05-05 22:29 16.62530 -67.98975 34059 ft 452 kts 330°
2026-05-05 22:29 16.65454 -68.00207 34047 ft 456 kts 344°
2026-05-05 22:30 16.68600 -68.00723 34052 ft 458 kts 353°
2026-05-05 22:30 16.74982 -68.01194 34053 ft 462 kts 354°
2026-05-05 22:31 16.81539 -68.01656 34065 ft 482 kts 353°
2026-05-05 22:31 16.88326 -68.02187 33376 ft 505 kts 353°
2026-05-05 22:31 16.91818 -68.02474 32398 ft 496 kts 353°
2026-05-05 22:32 16.95212 -68.02756 31731 ft 485 kts 353°
2026-05-05 22:32 16.98566 -68.03037 31116 ft 482 kts 353°
2026-05-05 22:32 17.01902 -68.03318 30503 ft 479 kts 353°
2026-05-05 22:32 17.05205 -68.03596 29907 ft 475 kts 354°
2026-05-05 22:33 17.08494 -68.03872 29302 ft 472 kts 354°
2026-05-05 22:33 17.11764 -68.04147 28698 ft 469 kts 354°
2026-05-05 22:33 17.15006 -68.04422 28085 ft 466 kts 354°
2026-05-05 22:33 17.18228 -68.04694 27474 ft 463 kts 354°
2026-05-05 22:34 17.21432 -68.04963 26883 ft 460 kts 354°
2026-05-05 22:34 17.24619 -68.05231 26268 ft 457 kts 354°
2026-05-05 22:34 17.27781 -68.05497 25665 ft 454 kts 354°
2026-05-05 22:34 17.30921 -68.05761 25071 ft 451 kts 354°
2026-05-05 22:35 17.34035 -68.06022 24479 ft 448 kts 354°
2026-05-05 22:35 17.37133 -68.06283 23893 ft 445 kts 354°
2026-05-05 22:35 17.40200 -68.06540 23312 ft 441 kts 354°
2026-05-05 22:35 17.43252 -68.06796 22730 ft 438 kts 354°
2026-05-05 22:36 17.46238 -68.07048 22171 ft 435 kts 354°
2026-05-05 22:36 17.49241 -68.07303 21611 ft 431 kts 354°
2026-05-05 22:36 17.52226 -68.07554 21047 ft 428 kts 354°
2026-05-05 22:36 17.55190 -68.07803 20489 ft 426 kts 354°
2026-05-05 22:37 17.58132 -68.08053 19933 ft 423 kts 354°
2026-05-05 22:37 17.61057 -68.08300 19379 ft 420 kts 354°
2026-05-05 22:37 17.63960 -68.08547 18840 ft 417 kts 354°
2026-05-05 22:37 17.66846 -68.08790 18269 ft 415 kts 354°
2026-05-05 22:38 17.69712 -68.09031 17732 ft 412 kts 354°
2026-05-05 22:38 17.72560 -68.09271 17184 ft 409 kts 354°
2026-05-05 22:38 17.75392 -68.09509 16637 ft 407 kts 354°
2026-05-05 22:38 17.78186 -68.09745 16050 ft 396 kts 354°
2026-05-05 22:39 17.80907 -68.09974 15515 ft 390 kts 354°
2026-05-05 22:39 17.83609 -68.10203 14995 ft 389 kts 354°
2026-05-05 22:39 17.86304 -68.10431 14462 ft 388 kts 354°
2026-05-05 22:39 17.88996 -68.10660 13932 ft 387 kts 355°
2026-05-05 22:40 17.91675 -68.10887 13399 ft 382 kts 355°
2026-05-05 22:40 17.94313 -68.11110 12884 ft 380 kts 355°
2026-05-05 22:40 17.96949 -68.11335 12365 ft 380 kts 355°
2026-05-05 22:40 17.99580 -68.11558 11847 ft 379 kts 355°
2026-05-05 22:41 18.02209 -68.11781 11327 ft 379 kts 355°
2026-05-05 22:41 18.04834 -68.12004 10911 ft 376 kts 355°
2026-05-05 22:41 18.07382 -68.12221 10740 ft 354 kts 356°
2026-05-05 22:41 18.09733 -68.12422 10566 ft 324 kts 356°
2026-05-05 22:42 18.11943 -68.12610 10458 ft 314 kts 356°
2026-05-05 22:42 18.14095 -68.12793 10326 ft 306 kts 356°
2026-05-05 22:42 18.15491 -68.12910 10243 ft 301 kts 356°
2026-05-05 22:42 18.18211 -68.13140 10079 ft 291 kts 356°
2026-05-05 22:43 18.20205 -68.13310 9906 ft 285 kts 356°
2026-05-05 22:43 18.22189 -68.13479 9569 ft 286 kts 356°
2026-05-05 22:43 18.24172 -68.13648 9238 ft 286 kts 357°
2026-05-05 22:43 18.25515 -68.13762 9030 ft 286 kts 357°
2026-05-05 22:44 18.27475 -68.13928 8697 ft 287 kts 357°
2026-05-05 22:44 18.29466 -68.14096 8358 ft 287 kts 357°
2026-05-05 22:44 18.31457 -68.14265 8015 ft 288 kts 357°
2026-05-05 22:44 18.33464 -68.14435 7669 ft 289 kts 357°
2026-05-05 22:45 18.35472 -68.14606 7365 ft 288 kts 357°
2026-05-05 22:45 18.37450 -68.14775 7175 ft 282 kts 357°
2026-05-05 22:45 18.39381 -68.14941 6977 ft 276 kts 358°
2026-05-05 22:45 18.41288 -68.15103 6708 ft 273 kts 358°
2026-05-05 22:46 18.43181 -68.15263 6398 ft 272 kts 358°
2026-05-05 22:46 18.45067 -68.15424 6076 ft 272 kts 358°
2026-05-05 22:46 18.46920 -68.15582 5972 ft 262 kts 358°
2026-05-05 22:46 18.48704 -68.15736 5890 ft 252 kts 358°
2026-05-05 22:47 18.50421 -68.15883 5724 ft 243 kts 358°
2026-05-05 22:47 18.52086 -68.16023 5528 ft 237 kts 358°
2026-05-05 22:47 18.53718 -68.16161 5276 ft 232 kts 358°
2026-05-05 22:47 18.55276 -68.16393 4993 ft 228 kts 348°
2026-05-05 22:48 18.56788 -68.16849 4747 ft 223 kts 345°
2026-05-05 22:48 18.58251 -68.17314 4569 ft 216 kts 346°
2026-05-05 22:48 18.59655 -68.17751 4334 ft 208 kts 346°
2026-05-05 22:48 18.60982 -68.18324 3902 ft 208 kts 324°
2026-05-05 22:49 18.61795 -68.19553 3472 ft 204 kts 282°
2026-05-05 22:49 18.61766 -68.20972 3124 ft 188 kts 255°
2026-05-05 22:49 18.61443 -68.22270 2756 ft 176 kts 251°
2026-05-05 22:49 18.61122 -68.23470 2327 ft 166 kts 251°
2026-05-05 22:50 18.60814 -68.24589 2040 ft 157 kts 250°
2026-05-05 22:50 18.60503 -68.25737 1903 ft 167 kts 251°
2026-05-05 22:50 18.60187 -68.26914 1712 ft 167 kts 251°
2026-05-05 22:50 18.59861 -68.28088 1472 ft 165 kts 250°
2026-05-05 22:51 18.59540 -68.29238 1268 ft 162 kts 250°
2026-05-05 22:51 18.59221 -68.30380 1047 ft 162 kts 250°
2026-05-05 22:51 18.58909 -68.31505 882 ft 159 kts 251°
2026-05-05 22:51 18.58599 -68.32632 757 ft 162 kts 251°
2026-05-05 22:52 18.58283 -68.33773 532 ft 162 kts 250°
2026-05-05 22:52 18.57969 -68.34902 256 ft 158 kts 251°
2026-05-05 22:52 18.57663 -68.36003 54 ft 152 kts 252°
2026-05-05 22:52 18.57403 -68.36943 50 ft 109 kts 254°
2026-05-05 22:53 18.57247 -68.37509 52 ft 57 kts 253°
2026-05-05 22:53 18.57148 -68.37873 53 ft 28 kts 254°
2026-05-05 22:53 18.57105 -68.38024 50 ft 16 kts 253°
2026-05-05 22:53 18.57074 -68.38133 52 ft 16 kts 252°
2026-05-05 22:54 18.57041 -68.38183 52 ft 4 kts 211°
2026-05-05 22:54 18.57015 -68.38186 57 ft 4 kts 174°
2026-05-05 22:54 18.56974 -68.38176 54 ft 9 kts 167°
2026-05-05 22:54 18.56965 -68.38174 56 ft 2 kts 164°
2026-05-05 22:55 18.56946 -68.38168 56 ft 4 kts 163°
2026-05-05 22:55 18.56933 -68.38164 56 ft 1 kts 163°
2026-05-05 22:55 18.56870 -68.38144 48 ft 19 kts 163°
2026-05-05 22:55 18.56804 -68.38087 51 ft 11 kts 120°
2026-05-05 22:56 18.56771 -68.38014 55 ft 11 kts 114°
2026-05-05 22:56 18.56739 -68.37940 55 ft 11 kts 114°
2026-05-05 22:56 18.56708 -68.37867 54 ft 11 kts 116°
2026-05-05 22:56 18.56657 -68.37809 50 ft 11 kts 151°
2026-05-05 22:57 18.56583 -68.37791 50 ft 11 kts 173°
2026-05-05 22:57 18.56507 -68.37783 53 ft 11 kts 174°
2026-05-05 22:57 18.56449 -68.37737 51 ft 11 kts 111°
2026-05-05 22:57 18.56446 -68.37656 55 ft 11 kts 84°
2026-05-05 22:58 18.56454 -68.37576 55 ft 11 kts 84°
2026-05-05 22:58 18.56460 -68.37494 55 ft 11 kts 85°
2026-05-05 22:58 18.56467 -68.37414 55 ft 11 kts 85°
2026-05-05 22:58 18.56474 -68.37333 55 ft 10 kts 85°
2026-05-05 22:59 18.56477 -68.37299 54 ft 0 kts 85°
2026-05-05 22:59 18.56479 -68.37271 53 ft 7 kts 85°
2026-05-05 22:59 18.56483 -68.37216 54 ft 8 kts 85°
2026-05-05 22:59 18.56488 -68.37159 55 ft 8 kts 85°
2026-05-05 23:00 18.56497 -68.37047 55 ft 4 kts 85°
2026-05-05 23:00 18.56492 -68.37027 50 ft 2 kts 127°
2026-05-05 23:00 18.56476 -68.37021 55 ft 3 kts 166°
2026-05-05 23:01 18.56454 -68.37016 55 ft 4 kts 169°
2026-05-05 23:01 18.56426 -68.37012 48 ft 4 kts 171°
2026-05-05 23:01 18.56394 -68.37007 53 ft 5 kts 173°
2026-05-05 23:01 18.56372 -68.36994 53 ft 3 kts 120°
2026-05-05 23:02 18.56366 -68.36971 55 ft 4 kts 100°
2026-05-05 23:02 18.56364 -68.36944 52 ft 2 kts 86°
2026-05-05 23:02 18.56365 -68.36935 55 ft 2 kts 87°
2026-05-05 23:02 18.56365 -68.36927 54 ft 1 kts 86°
2026-05-05 23:03 18.56366 -68.36917 55 ft 1 kts 86°
2026-05-05 23:03 18.56366 -68.36915 54 ft 0 kts 86°
2026-05-05 23:03 18.56366 -68.36914 55 ft 0 kts 86°